Regional Weather Roundup
Issued by NWS

Home | Current Version | Previous Version | Graphics & Text | Print | Product List | Glossary On
Versions: 1 2 3 4 5 6 7 8 9 10 11 12 13 14 15 16 17 18 19 20 21 22 23 24 25 26 27 28 29 30 31 32 33 34 35 36 37 38 39 40 41 42 43 44 45 46 47 48 49 50
000
ASUS43 KBIS 271610
RWRND

NORTH DAKOTA REGIONAL WEATHER ROUNDUP
NATIONAL WEATHER SERVICE BISMARCK ND
1100 AM CDT FRI MAY 27 2016

NOTE: "FAIR" INDICATES FEW OR NO CLOUDS BELOW 12,000 FEET WITH NO
SIGNIFICANT WEATHER AND/OR OBSTRUCTIONS TO VISIBILITY.


NDZ001>003-009>011-017-271700-
NORTHWEST NORTH DAKOTA

CITY           SKY/WX    TMP DP  RH WIND       PRES   REMARKS
WILLISTON      PTSUNNY   64  51  62 N9        29.86F
MINOT          CLOUDY    61  54  77 NW8       29.82S
MINOT AFB      CLOUDY    58  54  84 N8        29.81S
$$

NDZ018>021-031>035-040>046-271700-
SOUTHWEST NORTH DAKOTA

CITY           SKY/WX    TMP DP  RH WIND       PRES   REMARKS
BISMARCK       PTSUNNY   65  52  62 N8        29.83S
DICKINSON      MOSUNNY   62  46  55 N7        29.83F
GARRISON         N/A     62  50  64 NW6       29.83F
HETTINGER ARPT MOSUNNY   65  47  52 NW10      29.84F
$$

NDZ004>008-012>016-024-026-027-054-271700-
NORTHEAST NORTH DAKOTA

CITY           SKY/WX    TMP DP  RH WIND       PRES   REMARKS
GRAND FORKS    PTSUNNY   67  53  61 VRB3      29.81S
GRND FRKS AFB  MOSUNNY   65  54  66 VRB3      29.82S
DEVILS LAKE    MOSUNNY   63  53  70 W8        29.82S
$$

NDZ022-023-025-028>030-036>039-047>053-271700-
SOUTHEAST NORTH DAKOTA

CITY           SKY/WX    TMP DP  RH WIND       PRES   REMARKS
FARGO          MOSUNNY   70  57  63 NE7       29.78F
JAMESTOWN      CLOUDY    65  54  67 E10       29.82S
$$





USA.gov is the U.S. government's official web portal to all federal, state and local government web resources and services.